This is the latest recevied weather packets stored in our database for station/object DL9NEE-10. If no packets are shown the sender has not sent any weather packets the latest 10 day(s).
| Time | Temp. | Humidity | Pressure | Rain* | Wind** | Luminosity | Snow |
|---|---|---|---|---|---|---|---|
| 1777568686 | 20.56° C | 26% | 1027.6 hPa | - | - | - | - |
| 1777567786 | 21.11° C | 25% | 1027.5 hPa | - | - | - | - |
| 1777566886 | 22.22° C | 24% | 1027.6 hPa | - | - | - | - |
| 1777565985 | 23.89° C | 23% | 1027.4 hPa | - | - | - | - |
| 1777565084 | 26.67° C | 23% | 1027.4 hPa | - | - | - | - |
| 1777564183 | 30.56° C | 22% | 1027.5 hPa | - | - | - | - |
| 1777563283 | 30.56° C | 22% | 1027.5 hPa | - | - | - | - |
| 1777562383 | 30.56° C | 21% | 1027.6 hPa | - | - | - | - |
| 1777561483 | 30.56° C | 21% | 1027.8 hPa | - | - | - | - |
| 1777560583 | 30° C | 22% | 1027.8 hPa | - | - | - | - |
| 1777559683 | 30° C | 23% | 1027.8 hPa | - | - | - | - |
| 1777558782 | 29.44° C | 23% | 1028 hPa | - | - | - | - |
| 1777557882 | 28.89° C | 23% | 1028 hPa | - | - | - | - |
| 1777556982 | 28.33° C | 23% | 1028.2 hPa | - | - | - | - |
| 1777556082 | 27.78° C | 23% | 1028.1 hPa | - | - | - | - |
| 1777555182 | 27.22° C | 24% | 1028.2 hPa | - | - | - | - |
| 1777554282 | 26.11° C | 24% | 1028.4 hPa | - | - | - | - |
| 1777553382 | 26.11° C | 25% | 1028.5 hPa | - | - | - | - |
| 1777552481 | 25.56° C | 26% | 1029 hPa | - | - | - | - |
| 1777551581 | 25° C | 25% | 1029 hPa | - | - | - | - |
| 1777550681 | 24.44° C | 25% | 1029.1 hPa | - | - | - | - |
| 1777549781 | 24.44° C | 25% | 1029.1 hPa | - | - | - | - |
| 1777548881 | 23.89° C | 24% | 1029.2 hPa | - | - | - | - |
| 1777547981 | 30.56° C | 21% | 1029.4 hPa | - | - | - | - |
| 1777547080 | 20.56° C | 28% | 1029.5 hPa | - | - | - | - |
* Rain since midnight (hover to see other rain measurements)
** Current wind speed in m/s (hover to see current wind gust speed)